Regional Weather Roundup
Issued by NWS Goodland, KS

Home | Current Version | Previous Version | Graphics & Text | Print | Product List | Glossary On
Versions: 1 2 3 4 5 6 7 8 9 10 11 12 13 14 15 16 17 18 19 20 21 22 23 24 25 26 27 28 29 30 31 32 33 34 35 36 37 38 39 40 41 42 43 44 45 46 47 48 49 50
000
ASUS43 KGLD 241608
RWRGLD

GOODLAND FORECAST AREA HOURLY WEATHER ROUNDUP
NATIONAL WEATHER SERVICE GOODLAND KS
1000 AM MDT TUE APR 24 2018

...OFFICIAL OBSERVATIONS...

CITY           SKY/WX    TMP DP  RH WIND       PRES   REMARKS
GOODLAND KS    RAIN      34  34 100 NW16      30.35R FOG
HILL CITY KS   LGT RAIN  45  43  93 N24G36    30.28R FOG
IMPERIAL NEB   LGT RAIN  39  37  92 NW18G32   30.36R
MCCOOK NEB     LGT RAIN  42  40  92 N20G33    30.32R FOG
AKRON CO       CLOUDY    36  33  89 N22G31    30.39R
BURLINGTON CO  LGT SNOW  34  33  96 N16       30.36S FOG
LIMON CO       CLOUDY    33  31  92 N22G31    30.38R
$$

...UNOFFICIAL OBSERVATIONS...

CITY           SKY/WX    TMP DP  RH WIND       PRES   REMARKS
COLBY KS       LGT RAIN  39  39 100 NW18G28   30.34R
NORTON KS      LGT SNOW  43  41  93 NW18G24   30.28
SHARON SPRINGS   N/A     38  36  92 N20G28      N/A
KIT CARSON CO    N/A     35  31  85 MISG        N/A
$$




USA.gov is the U.S. government's official web portal to all federal, state and local government web resources and services.